| time (UTC) | temp F | wind direction | speed MPH | gust MPH | rain 1hr in | rain 24hr in | rain mn in | humidity % | barometer mb |
| 20260505223018 | 30 | 0.0 | 0.0 | 0.00 | 0.00 | 0.00 | 10 | 1004.4 | |
| 20260505221518 | 30 | 0.0 | 0.0 | 0.00 | 0.00 | 0.00 | 98 | 1004.4 | |
| 20260505214518 | 31 | 0.0 | 0.0 | 0.00 | 0.00 | 0.00 | 93 | 1004.3 | |
| 20260505213018 | 32 | 0.0 | 0.0 | 0.00 | 0.00 | 0.00 | 91 | 1004.2 | |
| 20260505211518 | 32 | 0.0 | 0.0 | 0.00 | 0.00 | 0.00 | 88 | 1004.0 | |
| 20260505210018 | 33 | 0.0 | 0.0 | 0.00 | 0.00 | 0.00 | 86 | 1003.8 | |
| 20260505204517 | 34 | 0.0 | 0.0 | 0.00 | 0.00 | 0.00 | 84 | 1003.6 | |
| 20260505203017 | 35 | 0.0 | 0.0 | 0.00 | 0.00 | 0.00 | 81 | 1003.4 | |
| 20260505201517 | 36 | 0.0 | 0.0 | 0.00 | 0.00 | 0.00 | 78 | 1003.3 | |
| 20260505200018 | 37 | 0.0 | 0.0 | 0.00 | 0.00 | 0.00 | 76 | 1003.2 | |
| 20260505193018 | 39 | 0.0 | 0.0 | 0.00 | 0.00 | 0.00 | 71 | 1003.1 | |
| 20260505191518 | 40 | 0.0 | 0.0 | 0.00 | 0.00 | 0.00 | 69 | 1003.0 | |
| 20260505190018 | 40 | 0.0 | 0.0 | 0.00 | 0.00 | 0.00 | 66 | 1002.7 | |
| 20260505183017 | 42 | 0.0 | 0.0 | 0.00 | 0.00 | 0.00 | 62 | 1002.4 | |
| 20260505181524 | 43 | 0.0 | 0.0 | 0.00 | 0.00 | 0.00 | 60 | 1002.2 | |
| 20260505180018 | 44 | 0.0 | 0.0 | 0.00 | 0.00 | 0.00 | 59 | 1002.1 | |
| 20260505174517 | 45 | 0.0 | 0.0 | 0.00 | 0.00 | 0.00 | 57 | 1001.9 | |
| 20260505173018 | 46 | 0.0 | 0.0 | 0.00 | 0.00 | 0.00 | 57 | 1001.8 | |
| 20260505171518 | 47 | 0.0 | 0.0 | 0.00 | 0.00 | 0.00 | 56 | 1001.7 | |
| 20260505170018 | 48 | 0.0 | 0.0 | 0.00 | 0.00 | 0.00 | 55 | 1001.6 | |
| 20260505163019 | 48 | 0.0 | 0.0 | 0.00 | 0.00 | 0.00 | 53 | 1001.6 | |
| 20260505161518 | 50 | 0.0 | 0.0 | 0.00 | 0.00 | 0.00 | 51 | 1001.5 | |
| 20260505153017 | 52 | 0.0 | 0.0 | 0.00 | 0.00 | 0.00 | 50 | 1001.2 | |
| 20260505123018 | 55 | 0.0 | 0.0 | 0.00 | 0.00 | 0.00 | 68 | 1000.4 | |
| 20260505121518 | 53 | 0.0 | 0.0 | 0.00 | 0.00 | 0.00 | 69 | 1000.4 | |
| 20260505120017 | 53 | 0.0 | 0.0 | 0.00 | 0.00 | 0.00 | 71 | 1000.3 | |
| 20260505114517 | 53 | 0.0 | 0.0 | 0.00 | 0.00 | 0.00 | 71 | 1000.1 | |
| 20260505113017 | 53 | 0.0 | 0.0 | 0.00 | 0.00 | 0.00 | 73 | 999.8 | |
| 20260505111518 | 53 | 0.0 | 0.0 | 0.00 | 0.00 | 0.00 | 74 | 999.7 | |
| 20260505100018 | 55 | 0.0 | 0.0 | 0.00 | 0.00 | 0.00 | 81 | 998.7 | |
| 20260505094518 | 56 | 0.0 | 0.0 | 0.00 | 0.00 | 0.00 | 83 | 998.6 | |
| 20260505093017 | 59 | 0.0 | 0.0 | 0.00 | 0.00 | 0.00 | 90 | 998.3 | |
| 20260505091518 | 57 | 0.0 | 0.0 | 0.00 | 0.00 | 0.00 | 94 | 998.0 | |
| 20260505090017 | 55 | 0.0 | 0.0 | 0.00 | 0.00 | 0.00 | 94 | 997.8 | |
| 20260505081518 | 53 | 0.0 | 0.0 | 0.00 | 0.00 | 0.00 | 10 | 997.3 | |
| 20260505080019 | 53 | 0.0 | 0.0 | 0.00 | 0.00 | 0.00 | 10 | 997.2 | |
| 20260505074517 | 55 | 0.0 | 0.0 | 0.00 | 0.00 | 0.00 | 10 | 997.1 | |
| 20260505073018 | 53 | 0.0 | 0.0 | 0.00 | 0.00 | 0.00 | 10 | 996.8 | |
| 20260505071518 | 52 | 0.0 | 0.0 | 0.00 | 0.00 | 0.00 | 10 | 996.8 | |
| 20260505070017 | 51 | 0.0 | 0.0 | 0.00 | 0.00 | 0.00 | 10 | 996.8 | |
| 20260505064518 | 50 | 0.0 | 0.0 | 0.00 | 0.00 | 0.00 | 10 | 996.8 | |
| 20260505063019 | 49 | 0.0 | 0.0 | 0.00 | 0.00 | 0.00 | 10 | 996.7 | |
| 20260505061518 | 48 | 0.0 | 0.0 | 0.00 | 0.00 | 0.00 | 10 | 996.7 | |
| 20260505041518 | 42 | 0.0 | 0.0 | 0.00 | 0.00 | 0.00 | 10 | 997.2 | |
| 20260505040018 | 42 | 0.0 | 0.0 | 0.00 | 0.00 | 0.00 | 10 | 997.0 | |
| 20260505034517 | 42 | 0.0 | 0.0 | 0.00 | 0.00 | 0.00 | 10 | 997.0 | |
| 20260505033018 | 42 | 0.0 | 0.0 | 0.00 | 0.00 | 0.00 | 10 | 997.0 | |
| 20260505031517 | 42 | 0.0 | 0.0 | 0.00 | 0.00 | 0.00 | 10 | 997.2 | |
| 20260505030018 | 42 | 0.0 | 0.0 | 0.00 | 0.00 | 0.00 | 10 | 997.3 | |
| 20260505024517 | 42 | 0.0 | 0.0 | 0.00 | 0.00 | 0.00 | 10 | 997.3 | |
| 20260505023018 | 42 | 0.0 | 0.0 | 0.00 | 0.00 | 0.00 | 10 | 997.3 | |
| 20260505020018 | 43 | 0.0 | 0.0 | 0.00 | 0.00 | 0.00 | 10 | 997.7 | |
| 20260505013018 | 43 | 0.0 | 0.0 | 0.00 | 0.00 | 0.00 | 10 | 998.2 | |
| 20260505011518 | 43 | 0.0 | 0.0 | 0.00 | 0.00 | 0.00 | 10 | 998.2 | |
| 20260505010018 | 43 | 0.0 | 0.0 | 0.00 | 0.00 | 0.00 | 10 | 998.0 | |
| 20260505004517 | 43 | 0.0 | 0.0 | 0.00 | 0.00 | 0.00 | 10 | 998.0 | |
| 20260505003018 | 43 | 0.0 | 0.0 | 0.00 | 0.00 | 0.00 | 10 | 998.0 | |
| 20260505001518 | 43 | 0.0 | 0.0 | 0.00 | 0.00 | 0.00 | 10 | 998.1 | |
| 20260505000017 | 43 | 0.0 | 0.0 | 0.00 | 0.00 | 0.00 | 10 | 998.1 | |
| 20260504234518 | 43 | 0.0 | 0.0 | 0.00 | 0.00 | 0.00 | 10 | 998.2 | |
| 20260504231517 | 44 | 0.0 | 0.0 | 0.00 | 0.00 | 0.00 | 10 | 998.2 | |
| 20260504230018 | 45 | 0.0 | 0.0 | 0.00 | 0.00 | 0.00 | 10 | 998.0 | |
| 20260504224517 | 45 | 0.0 | 0.0 | 0.00 | 0.00 | 0.00 | 10 | 998.0 |